RYR78KF LFRS-EBCI

Flight info

Callsign RYR78KF
Flight time N/A
Altitude 30000
Route ANG UL976 OBATO/N0443F280 UL976 RONAX UN873 BAZOS DCT BELDI DCT VEKIN Z173 ARVOL
Aircraft B738/M-SDE2E3FGHIRWXY/LB1

Departure

Time 2026-04-27 11:46
Airport Nantes Atlantique Airport (LFRS)

Arrival

Time N/A
Airport Brussels South Charleroi Airport (EBCI)
Time Latitude Longitude Altitude Speed Heading
2026-04-27 11:31 47.15514 -1.60160 84 ft 0 kts 207°
2026-04-27 11:37 47.15519 -1.60156 84 ft 2 kts 207°
2026-04-27 11:37 47.15532 -1.60147 84 ft 2 kts 207°
2026-04-27 11:37 47.15545 -1.60136 84 ft 2 kts 207°
2026-04-27 11:37 47.15555 -1.60129 84 ft 1 kts 212°
2026-04-27 11:38 47.15558 -1.60123 84 ft 0 kts 275°
2026-04-27 11:38 47.15557 -1.60115 84 ft 1 kts 304°
2026-04-27 11:38 47.15554 -1.60110 84 ft 0 kts 298°
2026-04-27 11:40 47.15555 -1.60112 84 ft 1 kts 298°
2026-04-27 11:40 47.15577 -1.60173 84 ft 8 kts 297°
2026-04-27 11:41 47.15601 -1.60245 84 ft 9 kts 296°
2026-04-27 11:41 47.15693 -1.60390 85 ft 21 kts 316°
2026-04-27 11:41 47.15668 -1.60537 85 ft 18 kts 207°
2026-04-27 11:41 47.15515 -1.60655 86 ft 35 kts 207°
2026-04-27 11:42 47.15259 -1.60851 87 ft 42 kts 208°
2026-04-27 11:42 47.15001 -1.61045 88 ft 40 kts 206°
2026-04-27 11:42 47.14752 -1.61237 86 ft 39 kts 207°
2026-04-27 11:42 47.14511 -1.61419 84 ft 38 kts 207°
2026-04-27 11:43 47.14280 -1.61595 81 ft 33 kts 207°
2026-04-27 11:43 47.14175 -1.61689 80 ft 2 kts 234°
2026-04-27 11:43 47.14175 -1.61690 80 ft 0 kts 236°
2026-04-27 11:43 47.14174 -1.61691 80 ft 0 kts 237°
2026-04-27 11:44 47.14145 -1.61796 80 ft 25 kts 254°
2026-04-27 11:44 47.14210 -1.61914 80 ft 15 kts 20°
2026-04-27 11:44 47.14264 -1.61877 81 ft 6 kts 27°
2026-04-27 11:44 47.14269 -1.61872 81 ft 0 kts 27°
2026-04-27 11:45 47.14271 -1.61871 81 ft 5 kts 27°
2026-04-27 11:45 47.14393 -1.61777 82 ft 54 kts 25°
2026-04-27 11:45 47.15184 -1.61175 88 ft 134 kts 28°
2026-04-27 11:45 47.16144 -1.60471 153 ft 166 kts 30°
2026-04-27 11:46 47.17102 -1.59656 782 ft 160 kts 36°
2026-04-27 11:46 47.17744 -1.58324 1302 ft 168 kts 79°
2026-04-27 11:46 47.17558 -1.56652 1952 ft 174 kts 111°
2026-04-27 11:46 47.16848 -1.55181 2538 ft 185 kts 133°
2026-04-27 11:47 47.15814 -1.53904 2942 ft 204 kts 129°
2026-04-27 11:47 47.15217 -1.51982 3377 ft 218 kts 92°
2026-04-27 11:47 47.15234 -1.49712 3973 ft 231 kts 86°
2026-04-27 11:47 47.15211 -1.47287 4532 ft 248 kts 92°
2026-04-27 11:48 47.15045 -1.44705 5121 ft 262 kts 95°
2026-04-27 11:48 47.14817 -1.42065 5934 ft 266 kts 96°
2026-04-27 11:48 47.14654 -1.40220 6485 ft 270 kts 96°
2026-04-27 11:48 47.14594 -1.39534 6699 ft 270 kts 96°
2026-04-27 11:49 47.14363 -1.36820 7475 ft 275 kts 95°
2026-04-27 11:49 47.14218 -1.34026 8261 ft 279 kts 88°
2026-04-27 11:49 47.14593 -1.31245 9044 ft 282 kts 66°
2026-04-27 11:49 47.15683 -1.28842 9837 ft 285 kts 46°
2026-04-27 11:50 47.17156 -1.26921 10532 ft 291 kts 39°
2026-04-27 11:50 47.18607 -1.25264 10946 ft 305 kts 37°
2026-04-27 11:50 47.20341 -1.23341 11386 ft 321 kts 37°
2026-04-27 11:50 47.22143 -1.21337 11863 ft 335 kts 37°
2026-04-27 11:51 47.23999 -1.19253 12634 ft 339 kts 38°
2026-04-27 11:51 47.25891 -1.17112 13422 ft 344 kts 38°
2026-04-27 11:51 47.29612 -1.12877 14880 ft 355 kts 38°
2026-04-27 11:52 47.31036 -1.11251 15437 ft 359 kts 38°
2026-04-27 11:52 47.32992 -1.09012 16194 ft 362 kts 39°
2026-04-27 11:52 47.34934 -1.06634 16857 ft 368 kts 40°
2026-04-27 11:52 47.36941 -1.04230 17531 ft 374 kts 38°
2026-04-27 11:53 47.39021 -1.01884 18246 ft 379 kts 37°
2026-04-27 11:53 47.41133 -0.99545 18913 ft 384 kts 37°
2026-04-27 11:53 47.43252 -0.97188 19577 ft 389 kts 37°
2026-04-27 11:53 47.45422 -0.94744 20216 ft 394 kts 37°
2026-04-27 11:54 47.47621 -0.92241 20764 ft 401 kts 37°
2026-04-27 11:54 47.49798 -0.89748 21380 ft 406 kts 37°
2026-04-27 11:54 47.52062 -0.87145 22039 ft 409 kts 37°
2026-04-27 11:54 47.54287 -0.84583 22621 ft 413 kts 37°
2026-04-27 11:55 47.56570 -0.81986 23235 ft 416 kts 37°
2026-04-27 11:55 47.58868 -0.79404 23704 ft 423 kts 37°
2026-04-27 11:55 47.61248 -0.76740 24227 ft 428 kts 36°
2026-04-27 11:55 47.63633 -0.74076 24878 ft 430 kts 36°
2026-04-27 11:56 47.65998 -0.71427 25301 ft 437 kts 37°
2026-04-27 11:56 47.68449 -0.68670 25852 ft 440 kts 36°
2026-04-27 11:56 47.70871 -0.65951 26349 ft 444 kts 36°
2026-04-27 11:56 47.73356 -0.63139 26807 ft 449 kts 36°
2026-04-27 11:57 47.75844 -0.60309 27278 ft 453 kts 37°
2026-04-27 11:57 47.78331 -0.57472 27678 ft 458 kts 36°
2026-04-27 11:57 47.80873 -0.54578 28130 ft 462 kts 36°
2026-04-27 11:57 47.83414 -0.51688 28566 ft 466 kts 36°
2026-04-27 11:58 47.85989 -0.48770 28976 ft 470 kts 36°
2026-04-27 11:58 47.88604 -0.45807 29378 ft 474 kts 36°
2026-04-27 11:58 47.91220 -0.42828 29791 ft 478 kts 36°
2026-04-27 11:58 47.93857 -0.39812 30151 ft 482 kts 36°
2026-04-27 11:59 47.96563 -0.36717 30173 ft 487 kts 36°
2026-04-27 11:59 48.01893 -0.30607 30176 ft 482 kts 37°
2026-04-27 12:00 48.06978 -0.24016 30178 ft 485 kts 46°
2026-04-27 12:00 48.11411 -0.16414 30176 ft 483 kts 51°
2026-04-27 12:01 48.15521 -0.08510 30180 ft 482 kts 53°
2026-04-27 12:01 48.19588 -0.00473 30182 ft 484 kts 53°
2026-04-27 12:02 48.23669 0.07597 30187 ft 485 kts 52°
2026-04-27 12:02 48.27735 0.15572 30183 ft 482 kts 52°
2026-04-27 12:03 48.31836 0.23605 30185 ft 484 kts 52°
2026-04-27 12:03 48.35916 0.31606 30184 ft 482 kts 52°
2026-04-27 12:04 48.39996 0.39616 30185 ft 482 kts 52°
2026-04-27 12:04 48.44087 0.47616 30190 ft 482 kts 51°
2026-04-27 12:05 48.48195 0.55622 30191 ft 482 kts 51°
2026-04-27 12:05 48.52513 0.63316 30192 ft 481 kts 43°
2026-04-27 12:06 48.57527 0.69882 30189 ft 479 kts 36°
2026-04-27 12:06 48.62870 0.75922 30193 ft 478 kts 34°
2026-04-27 12:07 48.68194 0.81841 30194 ft 478 kts 34°
2026-04-27 12:07 48.73554 0.87860 30183 ft 476 kts 35°
2026-04-27 12:08 48.78838 0.93862 30177 ft 474 kts 35°
2026-04-27 12:08 48.84102 0.99908 30182 ft 475 kts 35°
2026-04-27 12:09 48.89351 1.05970 30179 ft 475 kts 35°
2026-04-27 12:09 48.94616 1.12013 30189 ft 473 kts 35°
2026-04-27 12:10 48.99875 1.18093 30193 ft 474 kts 35°
2026-04-27 12:10 49.05044 1.24405 30200 ft 476 kts 39°
2026-04-27 12:11 49.09891 1.31235 30196 ft 475 kts 41°
2026-04-27 12:11 49.14605 1.38224 30189 ft 474 kts 42°
2026-04-27 12:12 49.19381 1.45227 30182 ft 474 kts 41°
2026-04-27 12:12 49.24130 1.52191 30183 ft 474 kts 41°
2026-04-27 12:13 49.28828 1.59080 30187 ft 474 kts 41°
2026-04-27 12:13 49.33609 1.66078 30182 ft 474 kts 41°
2026-04-27 12:14 49.38368 1.73061 30180 ft 473 kts 41°
2026-04-27 12:14 49.43145 1.80058 30186 ft 474 kts 41°
2026-04-27 12:15 49.47874 1.87015 30189 ft 473 kts 41°
2026-04-27 12:15 49.52432 1.93735 30187 ft 474 kts 41°
2026-04-27 12:16 49.57154 2.00723 30190 ft 473 kts 41°
2026-04-27 12:16 49.61890 2.07753 30188 ft 473 kts 41°
2026-04-27 12:17 49.66619 2.14812 30182 ft 473 kts 41°
2026-04-27 12:17 49.71335 2.21872 30189 ft 472 kts 41°
2026-04-27 12:18 49.76098 2.29010 30188 ft 472 kts 41°
2026-04-27 12:18 49.80567 2.35722 30198 ft 473 kts 41°
2026-04-27 12:19 49.85476 2.43119 30198 ft 472 kts 41°
2026-04-27 12:19 49.90136 2.50154 30205 ft 471 kts 41°
2026-04-27 12:20 49.94815 2.57239 30212 ft 471 kts 41°
2026-04-27 12:20 49.99514 2.64383 30217 ft 473 kts 41°
2026-04-27 12:21 50.04179 2.71498 30214 ft 471 kts 42°
2026-04-27 12:21 50.08655 2.78338 30209 ft 471 kts 41°
2026-04-27 12:22 50.13411 2.85624 29910 ft 465 kts 41°
2026-04-27 12:22 50.15676 2.89107 29267 ft 463 kts 42°
2026-04-27 12:22 50.17048 2.91220 28934 ft 460 kts 41°
2026-04-27 12:22 50.19580 2.95123 28344 ft 454 kts 41°
2026-04-27 12:23 50.23770 3.01592 27310 ft 445 kts 41°
2026-04-27 12:23 50.25939 3.04944 26780 ft 440 kts 41°
2026-04-27 12:23 50.28114 3.08311 26168 ft 438 kts 41°
2026-04-27 12:24 50.30264 3.11644 25701 ft 431 kts 42°
2026-04-27 12:24 50.32379 3.14927 25121 ft 428 kts 41°
2026-04-27 12:24 50.34512 3.18242 24600 ft 423 kts 42°
2026-04-27 12:24 50.35236 3.19368 24399 ft 421 kts 42°